SPIRALE A 1 33751U 09008C 25110.66469324 .00003749 00000-0 17651-2 0 9990 2 33751 2.0987 330.8352 5580244 93.1819 328.3923 4.61557643242571 SPIRALE B 1 33752U 09008D 25110.59825624 .00004676 00000-0 13717-2 0 9991 2 33752 1.9002 265.2624 6718625 218.8770 65.5610 3.00690831155250 SAPPHIRE 1 39088U 13009C 25111.08059486 .00000291 00000-0 11687-3 0 9999 2 39088 98.4148 295.9147 0012354 68.6028 291.6474 14.35049439636051